Flag for Germany Weather past 2 weeks in Garbsen, Lower Saxony, Germany

Now
48 °F

Sunny.


Feels Like: 45 °F
Forecast: 40 / 49 °F
Wind: 8 mph from South

Location: Hannover


UV Index: 0 (Low)

Visibility: 10 mi


Pressure: 30.27 "Hg

Humidity: 50%

Dew point: 30 °F

Location of GarbsenLocation

Historic Weather in Garbsen

°F

Garbsen temperature yesterday

Maximum temperature yesterday: 55 °F (at 2:50 PM)
Minimum temperature yesterday: 28 °F (at 5:20 AM)
Average temperature yesterday: 45 °F

Past Weeks' High & Low Weather Summary

 TemperatureHumidityPressure
High70 °F (Apr 2, 3:20 PM)100% (Apr 3, 6:50 AM)30.48 "Hg (Apr 3, 6:50 AM)
Low28 °F (Apr 16, 5:20 AM)38% (Apr 2, 1:50 PM)29.62 "Hg (Apr 3, 5:20 PM)
Average50 °F79%30.00 "Hg
* Reported Apr 2 8:20 AM — Apr 17 8:20 AM, Garbsen, Weather by CustomWeather, © 2014

Note: Actual official high and low records may vary slightly from our data, if they occured in-between our weather recording intervals... More about our weather records

Advertising

Historic Weather Conditions — Data for Previous 24 hours

 ConditionsComfort  
Time TempWeatherWind HumidityBarometerVisibility
8:20 AM
Apr 17
45 °FSunny.6 mph57%30.27 "Hg10 mi
7:50 AM45 °FSunny.8 mph57%30.27 "Hg10 mi
7:20 AM43 °FPassing clouds.8 mph61%30.27 "HgN/A
6:50 AM39 °FClear.8 mph61%30.27 "Hg10 mi
6:20 AM39 °FClear.7 mph61%30.27 "Hg10 mi
5:50 AM39 °FClear.6 mph61%30.27 "Hg10 mi
5:20 AM41 °FClear.7 mph57%30.30 "Hg10 mi
4:50 AM41 °FClear.6 mph57%30.30 "Hg10 mi
4:20 AM41 °FClear.6 mph61%30.30 "Hg10 mi
3:50 AM41 °FClear.8 mph61%30.30 "Hg10 mi
3:20 AM41 °FPassing clouds.6 mph61%30.33 "HgN/A
2:50 AM43 °FClear.7 mph57%30.33 "Hg10 mi
2:20 AM43 °FClear.7 mph61%30.33 "Hg10 mi
1:50 AM43 °FClear.7 mph61%30.36 "Hg10 mi
1:20 AM45 °FClear.8 mph57%30.36 "Hg10 mi
12:50 AM45 °FClear.8 mph57%30.36 "Hg10 mi
12:20 AM45 °FClear.8 mph57%30.36 "Hg10 mi
11:50 PM
Apr 16
45 °FClear.7 mph57%30.36 "Hg10 mi
11:20 PM46 °FClear.7 mph53%30.36 "Hg10 mi
10:50 PM46 °FClear.7 mph53%30.36 "Hg10 mi
10:20 PM46 °FClear.5 mph53%30.36 "Hg10 mi
9:50 PM48 °FClear.5 mph50%30.36 "Hg10 mi
9:20 PM50 °FClear.5 mph47%30.39 "Hg10 mi
8:50 PM50 °FSunny.5 mph47%30.39 "Hg10 mi
8:20 PM52 °FSunny.5 mph44%30.39 "Hg10 mi
7:50 PM54 °FPassing clouds.6 mph41%30.39 "HgN/A
7:20 PM54 °FSunny.6 mph41%30.39 "Hg10 mi
6:50 PM55 °FPassing clouds.6 mph38%30.39 "HgN/A
6:20 PM55 °FPassing clouds.7 mph41%30.39 "HgN/A
5:50 PM55 °FSunny.2 mph38%30.39 "Hg10 mi
5:20 PM54 °FSunny.3 mph38%30.39 "Hg10 mi
4:50 PM55 °FScattered clouds.6 mph38%30.39 "HgN/A
4:20 PM55 °FScattered clouds.6 mph44%30.42 "HgN/A
3:50 PM55 °FScattered clouds.6 mph41%30.42 "HgN/A
3:20 PM55 °FScattered clouds.7 mph44%30.42 "HgN/A
2:50 PM55 °FScattered clouds.5 mph47%30.42 "HgN/A
2:20 PM54 °FScattered clouds.5 mph51%30.45 "HgN/A
1:50 PM54 °FPassing clouds.5 mph54%30.45 "HgN/A
1:20 PM54 °FPassing clouds.5 mph51%30.45 "HgN/A
12:50 PM52 °FPassing clouds.6 mph58%30.45 "HgN/A
12:20 PM50 °FPassing clouds.6 mph58%30.45 "HgN/A
11:50 AM50 °FPassing clouds.6 mph62%30.45 "HgN/A
11:20 AM50 °FPassing clouds.5 mph67%30.45 "HgN/A
10:50 AM50 °FPassing clouds.3 mph67%30.45 "HgN/A
10:20 AM46 °FPassing clouds.3 mph76%30.48 "HgN/A
9:50 AM45 °FSunny.2 mph71%30.45 "Hg10 mi
9:20 AM43 °FPassing clouds.3 mph81%30.45 "HgN/A
Weather by CustomWeather, © 2014

See weather overview